owner,sensor,date,latitude,longitude,air_temperature,qcFlag 
NDBC,ioos:station:NOAA.NDBC:SAUF1:1,2016-02-01T16:00:00Z,29.8570,-81.2650,16.2,1111122 
NDBC,ioos:station:NOAA.NDBC:SAUF1:1,2016-02-01T17:00:00Z,29.8570,-81.2650,17.0,1111122 
NDBC,ioos:station:NOAA.NDBC:SAUF1:1,2016-02-01T18:00:00Z,29.8570,-81.2650,17.1,1111122 
NDBC,ioos:station:NOAA.NDBC:SAUF1:1,2016-02-01T19:00:00Z,29.8570,-81.2650,17.5,1111122 
NDBC,ioos:station:NOAA.NDBC:SAUF1:1,2016-02-01T20:00:00Z,29.8570,-81.2650,17.5,1111122 
NDBC,ioos:station:NOAA.NDBC:SAUF1:1,2016-02-01T21:00:00Z,29.8570,-81.2650,17.2,1111122 
NDBC,ioos:station:NOAA.NDBC:SAUF1:1,2016-02-01T22:00:00Z,29.8570,-81.2650,17.7,1111122 
NDBC,ioos:station:NOAA.NDBC:SAUF1:1,2016-02-01T23:00:00Z,29.8570,-81.2650,17.9,1111122 
NDBC,ioos:station:NOAA.NDBC:SAUF1:1,2016-02-02T00:00:00Z,29.8570,-81.2650,17.7,1111122 
NDBC,ioos:station:NOAA.NDBC:SAUF1:1,2016-02-02T01:00:00Z,29.8570,-81.2650,17.5,1111122 
NDBC,ioos:station:NOAA.NDBC:SAUF1:1,2016-02-02T02:00:00Z,29.8570,-81.2650,17.7,1111122 
NDBC,ioos:station:NOAA.NDBC:SAUF1:1,2016-02-02T03:00:00Z,29.8570,-81.2650,17.8,1111122 
NDBC,ioos:station:NOAA.NDBC:SAUF1:1,2016-02-02T04:00:00Z,29.8570,-81.2650,18.1,1111122 
NDBC,ioos:station:NOAA.NDBC:SAUF1:1,2016-02-02T05:00:00Z,29.8570,-81.2650,18.2,1111122 
NDBC,ioos:station:NOAA.NDBC:SAUF1:1,2016-02-02T06:00:00Z,29.8570,-81.2650,18.3,1111122 
NDBC,ioos:station:NOAA.NDBC:SAUF1:1,2016-02-02T07:00:00Z,29.8570,-81.2650,17.3,1111122 
NDBC,ioos:station:NOAA.NDBC:SAUF1:1,2016-02-02T08:00:00Z,29.8570,-81.2650,17.2,1111122 
NDBC,ioos:station:NOAA.NDBC:SAUF1:1,2016-02-02T09:00:00Z,29.8570,-81.2650,17.4,1111122 
NDBC,ioos:station:NOAA.NDBC:SAUF1:1,2016-02-02T10:00:00Z,29.8570,-81.2650,17.4,1111122 
NDBC,ioos:station:NOAA.NDBC:SAUF1:1,2016-02-02T11:00:00Z,29.8570,-81.2650,17.2,1111122 
NDBC,ioos:station:NOAA.NDBC:SAUF1:1,2016-02-02T12:00:00Z,29.8570,-81.2650,16.4,1111122 
NDBC,ioos:station:NOAA.NDBC:SAUF1:1,2016-02-02T13:00:00Z,29.8570,-81.2650,16.1,1111122 
NDBC,ioos:station:NOAA.NDBC:SAUF1:1,2016-02-02T14:00:00Z,29.8570,-81.2650,15.9,1111122 
NDBC,ioos:station:NOAA.NDBC:SAUF1:1,2016-02-02T15:00:00Z,29.8570,-81.2650,16.2,1111122 
NDBC,ioos:station:NOAA.NDBC:SAUF1:1,2016-02-02T16:00:00Z,29.8570,-81.2650,16.7,1111122 
NDBC,ioos:station:NOAA.NDBC:SAUF1:1,2016-02-02T19:00:00Z,29.8570,-81.2650,17.9,1111122 
NDBC,ioos:station:NOAA.NDBC:SAUF1:1,2016-02-02T20:00:00Z,29.8570,-81.2650,18.1,1111122 
NDBC,ioos:station:NOAA.NDBC:SAUF1:1,2016-02-02T21:00:00Z,29.8570,-81.2650,18.3,1111122 
NDBC,ioos:station:NOAA.NDBC:SAUF1:1,2016-02-02T22:00:00Z,29.8570,-81.2650,18.4,1111122 
NDBC,ioos:station:NOAA.NDBC:SAUF1:1,2016-02-02T23:00:00Z,29.8570,-81.2650,19.1,1111122 
NDBC,ioos:station:NOAA.NDBC:SAUF1:1,2016-02-03T00:00:00Z,29.8570,-81.2650,18.9,1111122 
NDBC,ioos:station:NOAA.NDBC:SAUF1:1,2016-02-03T01:00:00Z,29.8570,-81.2650,18.2,1111122 
NDBC,ioos:station:NOAA.NDBC:SAUF1:1,2016-02-03T02:00:00Z,29.8570,-81.2650,18.0,1111122 
NDBC,ioos:station:NOAA.NDBC:SAUF1:1,2016-02-03T03:00:00Z,29.8570,-81.2650,18.1,1111122 
NDBC,ioos:station:NOAA.NDBC:SAUF1:1,2016-02-03T04:00:00Z,29.8570,-81.2650,17.9,1111122 
NDBC,ioos:station:NOAA.NDBC:SAUF1:1,2016-02-03T05:00:00Z,29.8570,-81.2650,18.6,1111122 
NDBC,ioos:station:NOAA.NDBC:SAUF1:1,2016-02-03T06:00:00Z,29.8570,-81.2650,19.7,1111122 
NDBC,ioos:station:NOAA.NDBC:SAUF1:1,2016-02-03T07:00:00Z,29.8570,-81.2650,17.8,1111122 
NDBC,ioos:station:NOAA.NDBC:SAUF1:1,2016-02-03T08:00:00Z,29.8570,-81.2650,17.4,1111122 
NDBC,ioos:station:NOAA.NDBC:SAUF1:1,2016-02-03T09:00:00Z,29.8570,-81.2650,17.3,1111122 
NDBC,ioos:station:NOAA.NDBC:SAUF1:1,2016-02-03T10:00:00Z,29.8570,-81.2650,17.6,1111122 
NDBC,ioos:station:NOAA.NDBC:SAUF1:1,2016-02-03T11:00:00Z,29.8570,-81.2650,17.2,1111122 
NDBC,ioos:station:NOAA.NDBC:SAUF1:1,2016-02-03T12:00:00Z,29.8570,-81.2650,17.0,1111122 
NDBC,ioos:station:NOAA.NDBC:SAUF1:1,2016-02-03T13:00:00Z,29.8570,-81.2650,17.0,1111122 
NDBC,ioos:station:NOAA.NDBC:SAUF1:1,2016-02-03T14:00:00Z,29.8570,-81.2650,17.2,1111122 
NDBC,ioos:station:NOAA.NDBC:SAUF1:1,2016-02-03T15:00:00Z,29.8570,-81.2650,17.4,1111122 
NDBC,ioos:station:NOAA.NDBC:SAUF1:1,2016-02-03T16:00:00Z,29.8570,-81.2650,18.0,1111122 
NDBC,ioos:station:NOAA.NDBC:SAUF1:1,2016-02-03T17:00:00Z,29.8570,-81.2650,18.4,1111122 
NDBC,ioos:station:NOAA.NDBC:SAUF1:1,2016-02-03T18:00:00Z,29.8570,-81.2650,18.5,1111122 
NDBC,ioos:station:NOAA.NDBC:SAUF1:1,2016-02-03T19:00:00Z,29.8570,-81.2650,18.4,1111122 
NDBC,ioos:station:NOAA.NDBC:SAUF1:1,2016-02-03T20:00:00Z,29.8570,-81.2650,18.4,1111122 
NDBC,ioos:station:NOAA.NDBC:SAUF1:1,2016-02-03T21:00:00Z,29.8570,-81.2650,18.4,1111122 
NDBC,ioos:station:NOAA.NDBC:SAUF1:1,2016-02-03T22:00:00Z,29.8570,-81.2650,18.2,1111122 
NDBC,ioos:station:NOAA.NDBC:SAUF1:1,2016-02-03T23:00:00Z,29.8570,-81.2650,18.8,1111122 
NDBC,ioos:station:NOAA.NDBC:SAUF1:1,2016-02-04T00:00:00Z,29.8570,-81.2650,18.0,1111122 
NDBC,ioos:station:NOAA.NDBC:SAUF1:1,2016-02-04T01:00:00Z,29.8570,-81.2650,17.8,1111122 
NDBC,ioos:station:NOAA.NDBC:SAUF1:1,2016-02-04T02:00:00Z,29.8570,-81.2650,17.4,1111122 
NDBC,ioos:station:NOAA.NDBC:SAUF1:1,2016-02-04T03:00:00Z,29.8570,-81.2650,17.3,1111122 
NDBC,ioos:station:NOAA.NDBC:SAUF1:1,2016-02-04T04:00:00Z,29.8570,-81.2650,17.5,1111122 
NDBC,ioos:station:NOAA.NDBC:SAUF1:1,2016-02-04T05:00:00Z,29.8570,-81.2650,21.9,1111122 
NDBC,ioos:station:NOAA.NDBC:SAUF1:1,2016-02-04T06:00:00Z,29.8570,-81.2650,21.6,1111122 
NDBC,ioos:station:NOAA.NDBC:SAUF1:1,2016-02-04T07:00:00Z,29.8570,-81.2650,21.2,1111122 
NDBC,ioos:station:NOAA.NDBC:SAUF1:1,2016-02-04T08:00:00Z,29.8570,-81.2650,20.8,1111122 
NDBC,ioos:station:NOAA.NDBC:SAUF1:1,2016-02-04T09:00:00Z,29.8570,-81.2650,20.6,1111122 
NDBC,ioos:station:NOAA.NDBC:SAUF1:1,2016-02-04T10:00:00Z,29.8570,-81.2650,20.9,1111122 
NDBC,ioos:station:NOAA.NDBC:SAUF1:1,2016-02-04T11:00:00Z,29.8570,-81.2650,20.8,1111122 
NDBC,ioos:station:NOAA.NDBC:SAUF1:1,2016-02-04T12:00:00Z,29.8570,-81.2650,19.0,1111122 
NDBC,ioos:station:NOAA.NDBC:SAUF1:1,2016-02-04T13:00:00Z,29.8570,-81.2650,20.6,1111122 
NDBC,ioos:station:NOAA.NDBC:SAUF1:1,2016-02-04T14:00:00Z,29.8570,-81.2650,20.1,1111122 
NDBC,ioos:station:NOAA.NDBC:SAUF1:1,2016-02-04T15:00:00Z,29.8570,-81.2650,19.0,1111122 
NDBC,ioos:station:NOAA.NDBC:SAUF1:1,2016-02-04T16:00:00Z,29.8570,-81.2650,23.7,1111122 
NDBC,ioos:station:NOAA.NDBC:SAUF1:1,2016-02-04T17:00:00Z,29.8570,-81.2650,23.7,1111122 
NDBC,ioos:station:NOAA.NDBC:SAUF1:1,2016-02-04T18:00:00Z,29.8570,-81.2650,24.1,1111122 
NDBC,ioos:station:NOAA.NDBC:SAUF1:1,2016-02-04T19:00:00Z,29.8570,-81.2650,22.4,1111122 
NDBC,ioos:station:NOAA.NDBC:SAUF1:1,2016-02-04T20:00:00Z,29.8570,-81.2650,17.0,1111122 
NDBC,ioos:station:NOAA.NDBC:SAUF1:1,2016-02-04T21:00:00Z,29.8570,-81.2650,17.1,1111122 
NDBC,ioos:station:NOAA.NDBC:SAUF1:1,2016-02-04T22:00:00Z,29.8570,-81.2650,17.9,1111122 
NDBC,ioos:station:NOAA.NDBC:SAUF1:1,2016-02-04T23:00:00Z,29.8570,-81.2650,16.1,1111122 
NDBC,ioos:station:NOAA.NDBC:SAUF1:1,2016-02-05T00:00:00Z,29.8570,-81.2650,13.2,1111122 
NDBC,ioos:station:NOAA.NDBC:SAUF1:1,2016-02-05T01:00:00Z,29.8570,-81.2650,12.5,1111122 
NDBC,ioos:station:NOAA.NDBC:SAUF1:1,2016-02-05T02:00:00Z,29.8570,-81.2650,10.8,1111122 
NDBC,ioos:station:NOAA.NDBC:SAUF1:1,2016-02-05T03:00:00Z,29.8570,-81.2650,9.5,1111122 
NDBC,ioos:station:NOAA.NDBC:SAUF1:1,2016-02-05T04:00:00Z,29.8570,-81.2650,10.0,1111122 
NDBC,ioos:station:NOAA.NDBC:SAUF1:1,2016-02-05T05:00:00Z,29.8570,-81.2650,10.6,1111122 
NDBC,ioos:station:NOAA.NDBC:SAUF1:1,2016-02-05T06:00:00Z,29.8570,-81.2650,10.8,1111122 
NDBC,ioos:station:NOAA.NDBC:SAUF1:1,2016-02-05T07:00:00Z,29.8570,-81.2650,10.1,1111122 
NDBC,ioos:station:NOAA.NDBC:SAUF1:1,2016-02-05T08:00:00Z,29.8570,-81.2650,9.2,1111122 
NDBC,ioos:station:NOAA.NDBC:SAUF1:1,2016-02-05T09:00:00Z,29.8570,-81.2650,8.4,1111122 
NDBC,ioos:station:NOAA.NDBC:SAUF1:1,2016-02-05T11:00:00Z,29.8570,-81.2650,6.4,1111122 
NDBC,ioos:station:NOAA.NDBC:SAUF1:1,2016-02-05T12:00:00Z,29.8570,-81.2650,5.6,1111122 
NDBC,ioos:station:NOAA.NDBC:SAUF1:1,2016-02-05T13:00:00Z,29.8570,-81.2650,5.4,1111122 
NDBC,ioos:station:NOAA.NDBC:SAUF1:1,2016-02-05T14:00:00Z,29.8570,-81.2650,6.3,1111122 
NDBC,ioos:station:NOAA.NDBC:SAUF1:1,2016-02-05T15:00:00Z,29.8570,-81.2650,7.1,1111122 
NDBC,ioos:station:NOAA.NDBC:SAUF1:1,2016-02-05T16:00:00Z,29.8570,-81.2650,7.4,1111122 
NDBC,ioos:station:NOAA.NDBC:SAUF1:1,2016-02-05T17:00:00Z,29.8570,-81.2650,8.1,1111122 
NDBC,ioos:station:NOAA.NDBC:SAUF1:1,2016-02-05T18:00:00Z,29.8570,-81.2650,8.8,1111122 
NDBC,ioos:station:NOAA.NDBC:SAUF1:1,2016-02-05T19:00:00Z,29.8570,-81.2650,9.1,1111122 
NDBC,ioos:station:NOAA.NDBC:SAUF1:1,2016-02-05T20:00:00Z,29.8570,-81.2650,9.8,1111122 
NDBC,ioos:station:NOAA.NDBC:SAUF1:1,2016-02-05T21:00:00Z,29.8570,-81.2650,10.2,1111122 
NDBC,ioos:station:NOAA.NDBC:SAUF1:1,2016-02-05T22:00:00Z,29.8570,-81.2650,10.7,1111122 
NDBC,ioos:station:NOAA.NDBC:SAUF1:1,2016-02-06T00:00:00Z,29.8570,-81.2650,11.4,1111122 
NDBC,ioos:station:NOAA.NDBC:SAUF1:1,2016-02-06T01:00:00Z,29.8570,-81.2650,11.3,1111122 
NDBC,ioos:station:NOAA.NDBC:SAUF1:1,2016-02-06T02:00:00Z,29.8570,-81.2650,11.4,1111122 
NDBC,ioos:station:NOAA.NDBC:SAUF1:1,2016-02-06T03:00:00Z,29.8570,-81.2650,11.6,1111122 
NDBC,ioos:station:NOAA.NDBC:SAUF1:1,2016-02-06T04:00:00Z,29.8570,-81.2650,12.0,1111122 
NDBC,ioos:station:NOAA.NDBC:SAUF1:1,2016-02-06T05:00:00Z,29.8570,-81.2650,12.0,1111122 
NDBC,ioos:station:NOAA.NDBC:SAUF1:1,2016-02-06T06:00:00Z,29.8570,-81.2650,12.4,1111122 
NDBC,ioos:station:NOAA.NDBC:SAUF1:1,2016-02-06T07:00:00Z,29.8570,-81.2650,12.6,1111122 
NDBC,ioos:station:NOAA.NDBC:SAUF1:1,2016-02-06T08:00:00Z,29.8570,-81.2650,12.7,1111122 
NDBC,ioos:station:NOAA.NDBC:SAUF1:1,2016-02-06T09:00:00Z,29.8570,-81.2650,12.9,1111122 
NDBC,ioos:station:NOAA.NDBC:SAUF1:1,2016-02-06T10:00:00Z,29.8570,-81.2650,12.8,1111122 
NDBC,ioos:station:NOAA.NDBC:SAUF1:1,2016-02-06T11:00:00Z,29.8570,-81.2650,12.8,1111122 
NDBC,ioos:station:NOAA.NDBC:SAUF1:1,2016-02-06T12:00:00Z,29.8570,-81.2650,12.6,1111122 
NDBC,ioos:station:NOAA.NDBC:SAUF1:1,2016-02-06T13:00:00Z,29.8570,-81.2650,12.8,1111122 
NDBC,ioos:station:NOAA.NDBC:SAUF1:1,2016-02-06T14:00:00Z,29.8570,-81.2650,12.8,1111122 
NDBC,ioos:station:NOAA.NDBC:SAUF1:1,2016-02-06T15:00:00Z,29.8570,-81.2650,12.8,1111122 
NDBC,ioos:station:NOAA.NDBC:SAUF1:1,2016-02-06T16:00:00Z,29.8570,-81.2650,13.0,1111122 
NDBC,ioos:station:NOAA.NDBC:SAUF1:1,2016-02-06T17:00:00Z,29.8570,-81.2650,13.2,1111122 
NDBC,ioos:station:NOAA.NDBC:SAUF1:1,2016-02-06T18:00:00Z,29.8570,-81.2650,13.4,1111122 
NDBC,ioos:station:NOAA.NDBC:SAUF1:1,2016-02-06T19:00:00Z,29.8570,-81.2650,13.4,1111122 
NDBC,ioos:station:NOAA.NDBC:SAUF1:1,2016-02-06T20:00:00Z,29.8570,-81.2650,13.8,1111122 
NDBC,ioos:station:NOAA.NDBC:SAUF1:1,2016-02-06T21:00:00Z,29.8570,-81.2650,14.1,1111122 
NDBC,ioos:station:NOAA.NDBC:SAUF1:1,2016-02-06T22:00:00Z,29.8570,-81.2650,14.0,1111122 
NDBC,ioos:station:NOAA.NDBC:SAUF1:1,2016-02-06T23:00:00Z,29.8570,-81.2650,12.8,1111122 
NDBC,ioos:station:NOAA.NDBC:SAUF1:1,2016-02-07T00:00:00Z,29.8570,-81.2650,12.6,1111122 
NDBC,ioos:station:NOAA.NDBC:SAUF1:1,2016-02-07T01:00:00Z,29.8570,-81.2650,11.8,1111122 
NDBC,ioos:station:NOAA.NDBC:SAUF1:1,2016-02-07T02:00:00Z,29.8570,-81.2650,11.2,1111122 
NDBC,ioos:station:NOAA.NDBC:SAUF1:1,2016-02-07T03:00:00Z,29.8570,-81.2650,10.8,1111122 
NDBC,ioos:station:NOAA.NDBC:SAUF1:1,2016-02-07T04:00:00Z,29.8570,-81.2650,7.8,1111122 
NDBC,ioos:station:NOAA.NDBC:SAUF1:1,2016-02-07T05:00:00Z,29.8570,-81.2650,7.4,1111122 
NDBC,ioos:station:NOAA.NDBC:SAUF1:1,2016-02-07T06:00:00Z,29.8570,-81.2650,6.8,1111122 
NDBC,ioos:station:NOAA.NDBC:SAUF1:1,2016-02-07T07:00:00Z,29.8570,-81.2650,6.4,1111122 
NDBC,ioos:station:NOAA.NDBC:SAUF1:1,2016-02-07T08:00:00Z,29.8570,-81.2650,5.9,1111122 
NDBC,ioos:station:NOAA.NDBC:SAUF1:1,2016-02-07T09:00:00Z,29.8570,-81.2650,5.9,1111122 
NDBC,ioos:station:NOAA.NDBC:SAUF1:1,2016-02-07T10:00:00Z,29.8570,-81.2650,5.8,1111122 
NDBC,ioos:station:NOAA.NDBC:SAUF1:1,2016-02-07T11:00:00Z,29.8570,-81.2650,5.8,1111122 
NDBC,ioos:station:NOAA.NDBC:SAUF1:1,2016-02-07T12:00:00Z,29.8570,-81.2650,6.2,1111122 
NDBC,ioos:station:NOAA.NDBC:SAUF1:1,2016-02-07T13:00:00Z,29.8570,-81.2650,6.2,1111122 
NDBC,ioos:station:NOAA.NDBC:SAUF1:1,2016-02-07T14:00:00Z,29.8570,-81.2650,5.9,1111122 
NDBC,ioos:station:NOAA.NDBC:SAUF1:1,2016-02-07T15:00:00Z,29.8570,-81.2650,5.6,1111122 
NDBC,ioos:station:NOAA.NDBC:SAUF1:1,2016-02-07T16:00:00Z,29.8570,-81.2650,6.8,1111122 
NDBC,ioos:station:NOAA.NDBC:SAUF1:1,2016-02-07T17:00:00Z,29.8570,-81.2650,8.3,1111122 
NDBC,ioos:station:NOAA.NDBC:SAUF1:1,2016-02-07T18:00:00Z,29.8570,-81.2650,9.3,1111122 
NDBC,ioos:station:NOAA.NDBC:SAUF1:1,2016-02-07T19:00:00Z,29.8570,-81.2650,9.6,1111122 
NDBC,ioos:station:NOAA.NDBC:SAUF1:1,2016-02-07T20:00:00Z,29.8570,-81.2650,11.2,1111122 
NDBC,ioos:station:NOAA.NDBC:SAUF1:1,2016-02-07T21:00:00Z,29.8570,-81.2650,12.0,1111122 
NDBC,ioos:station:NOAA.NDBC:SAUF1:1,2016-02-07T22:00:00Z,29.8570,-81.2650,12.0,1111122 
NDBC,ioos:station:NOAA.NDBC:SAUF1:1,2016-02-07T23:00:00Z,29.8570,-81.2650,11.1,1111122 
NDBC,ioos:station:NOAA.NDBC:SAUF1:1,2016-02-08T00:00:00Z,29.8570,-81.2650,9.6,1111122 
NDBC,ioos:station:NOAA.NDBC:SAUF1:1,2016-02-08T01:00:00Z,29.8570,-81.2650,8.8,1111122 
NDBC,ioos:station:NOAA.NDBC:SAUF1:1,2016-02-08T02:00:00Z,29.8570,-81.2650,7.9,1111122 
NDBC,ioos:station:NOAA.NDBC:SAUF1:1,2016-02-08T03:00:00Z,29.8570,-81.2650,7.5,1111122 
NDBC,ioos:station:NOAA.NDBC:SAUF1:1,2016-02-08T04:00:00Z,29.8570,-81.2650,7.1,1111122 
NDBC,ioos:station:NOAA.NDBC:SAUF1:1,2016-02-08T05:00:00Z,29.8570,-81.2650,6.4,1111122 
NDBC,ioos:station:NOAA.NDBC:SAUF1:1,2016-02-08T06:00:00Z,29.8570,-81.2650,6.1,1111122 
NDBC,ioos:station:NOAA.NDBC:SAUF1:1,2016-02-08T07:00:00Z,29.8570,-81.2650,5.7,1111122 
NDBC,ioos:station:NOAA.NDBC:SAUF1:1,2016-02-08T08:00:00Z,29.8570,-81.2650,5.7,1111122 
NDBC,ioos:station:NOAA.NDBC:SAUF1:1,2016-02-08T09:00:00Z,29.8570,-81.2650,5.3,1111122 
NDBC,ioos:station:NOAA.NDBC:SAUF1:1,2016-02-08T10:00:00Z,29.8570,-81.2650,5.1,1111122 
NDBC,ioos:station:NOAA.NDBC:SAUF1:1,2016-02-08T11:00:00Z,29.8570,-81.2650,5.6,1111122 
NDBC,ioos:station:NOAA.NDBC:SAUF1:1,2016-02-08T12:00:00Z,29.8570,-81.2650,5.3,1111122 
NDBC,ioos:station:NOAA.NDBC:SAUF1:1,2016-02-08T13:00:00Z,29.8570,-81.2650,7.0,1111122 
NDBC,ioos:station:NOAA.NDBC:SAUF1:1,2016-02-08T14:00:00Z,29.8570,-81.2650,9.6,1111122 
NDBC,ioos:station:NOAA.NDBC:SAUF1:1,2016-02-08T15:00:00Z,29.8570,-81.2650,11.6,1111122 
NDBC,ioos:station:NOAA.NDBC:SAUF1:1,2016-02-08T16:00:00Z,29.8570,-81.2650,13.6,1111122 
NDBC,ioos:station:NOAA.NDBC:SAUF1:1,2016-02-08T17:00:00Z,29.8570,-81.2650,15.0,1111122 
NDBC,ioos:station:NOAA.NDBC:SAUF1:1,2016-02-08T18:00:00Z,29.8570,-81.2650,15.2,1111122 
NDBC,ioos:station:NOAA.NDBC:SAUF1:1,2016-02-08T19:00:00Z,29.8570,-81.2650,16.4,1111122 
NDBC,ioos:station:NOAA.NDBC:SAUF1:1,2016-02-08T20:00:00Z,29.8570,-81.2650,16.6,1111122 
NDBC,ioos:station:NOAA.NDBC:SAUF1:1,2016-02-08T21:00:00Z,29.8570,-81.2650,16.8,1111122 
NDBC,ioos:station:NOAA.NDBC:SAUF1:1,2016-02-08T22:00:00Z,29.8570,-81.2650,15.9,1111122 
NDBC,ioos:station:NOAA.NDBC:SAUF1:1,2016-02-08T23:00:00Z,29.8570,-81.2650,15.4,1111122 
NDBC,ioos:station:NOAA.NDBC:SAUF1:1,2016-02-09T00:00:00Z,29.8570,-81.2650,15.1,1111122 
NDBC,ioos:station:NOAA.NDBC:SAUF1:1,2016-02-09T01:00:00Z,29.8570,-81.2650,14.6,1111122 
NDBC,ioos:station:NOAA.NDBC:SAUF1:1,2016-02-09T02:00:00Z,29.8570,-81.2650,14.7,1111122 
NDBC,ioos:station:NOAA.NDBC:SAUF1:1,2016-02-09T03:00:00Z,29.8570,-81.2650,13.8,1111122 
NDBC,ioos:station:NOAA.NDBC:SAUF1:1,2016-02-09T04:00:00Z,29.8570,-81.2650,13.7,1111122 
NDBC,ioos:station:NOAA.NDBC:SAUF1:1,2016-02-09T05:00:00Z,29.8570,-81.2650,11.6,1111122 
NDBC,ioos:station:NOAA.NDBC:SAUF1:1,2016-02-09T06:00:00Z,29.8570,-81.2650,11.2,1111122 
NDBC,ioos:station:NOAA.NDBC:SAUF1:1,2016-02-09T07:00:00Z,29.8570,-81.2650,10.5,1111122 
NDBC,ioos:station:NOAA.NDBC:SAUF1:1,2016-02-09T08:00:00Z,29.8570,-81.2650,9.9,1111122 
NDBC,ioos:station:NOAA.NDBC:SAUF1:1,2016-02-09T09:00:00Z,29.8570,-81.2650,9.3,1111122 
NDBC,ioos:station:NOAA.NDBC:SAUF1:1,2016-02-09T10:00:00Z,29.8570,-81.2650,8.4,1111122 
NDBC,ioos:station:NOAA.NDBC:SAUF1:1,2016-02-09T11:00:00Z,29.8570,-81.2650,7.6,1111122 
NDBC,ioos:station:NOAA.NDBC:SAUF1:1,2016-02-09T12:00:00Z,29.8570,-81.2650,6.7,1111122 
NDBC,ioos:station:NOAA.NDBC:SAUF1:1,2016-02-09T13:00:00Z,29.8570,-81.2650,6.9,1111122 
NDBC,ioos:station:NOAA.NDBC:SAUF1:1,2016-02-09T15:00:00Z,29.8570,-81.2650,8.7,1111122 
NDBC,ioos:station:NOAA.NDBC:SAUF1:1,2016-02-09T16:00:00Z,29.8570,-81.2650,9.5,1111122 
NDBC,ioos:station:NOAA.NDBC:SAUF1:1,2016-02-09T17:00:00Z,29.8570,-81.2650,10.4,1111122 
NDBC,ioos:station:NOAA.NDBC:SAUF1:1,2016-02-09T18:00:00Z,29.8570,-81.2650,11.7,1111122 
NDBC,ioos:station:NOAA.NDBC:SAUF1:1,2016-02-09T19:00:00Z,29.8570,-81.2650,12.6,1111122 
NDBC,ioos:station:NOAA.NDBC:SAUF1:1,2016-02-09T20:00:00Z,29.8570,-81.2650,13.5,1111122 
NDBC,ioos:station:NOAA.NDBC:SAUF1:1,2016-02-09T21:00:00Z,29.8570,-81.2650,13.3,1111122 
NDBC,ioos:station:NOAA.NDBC:SAUF1:1,2016-02-09T22:00:00Z,29.8570,-81.2650,13.2,1111122 
NDBC,ioos:station:NOAA.NDBC:SAUF1:1,2016-02-09T23:00:00Z,29.8570,-81.2650,12.4,1111122 
NDBC,ioos:station:NOAA.NDBC:SAUF1:1,2016-02-10T00:00:00Z,29.8570,-81.2650,11.6,1111122 
NDBC,ioos:station:NOAA.NDBC:SAUF1:1,2016-02-10T01:00:00Z,29.8570,-81.2650,10.6,1111122 
NDBC,ioos:station:NOAA.NDBC:SAUF1:1,2016-02-10T02:00:00Z,29.8570,-81.2650,9.5,1111122 
NDBC,ioos:station:NOAA.NDBC:SAUF1:1,2016-02-10T03:00:00Z,29.8570,-81.2650,8.9,1111122 
NDBC,ioos:station:NOAA.NDBC:SAUF1:1,2016-02-10T04:00:00Z,29.8570,-81.2650,8.1,1111122 
NDBC,ioos:station:NOAA.NDBC:SAUF1:1,2016-02-10T05:00:00Z,29.8570,-81.2650,7.1,1111122 
NDBC,ioos:station:NOAA.NDBC:SAUF1:1,2016-02-10T06:00:00Z,29.8570,-81.2650,6.1,1111122 
NDBC,ioos:station:NOAA.NDBC:SAUF1:1,2016-02-10T07:00:00Z,29.8570,-81.2650,5.1,1111122 
NDBC,ioos:station:NOAA.NDBC:SAUF1:1,2016-02-10T08:00:00Z,29.8570,-81.2650,4.4,1111122 
NDBC,ioos:station:NOAA.NDBC:SAUF1:1,2016-02-10T09:00:00Z,29.8570,-81.2650,3.4,1111122 
NDBC,ioos:station:NOAA.NDBC:SAUF1:1,2016-02-10T10:00:00Z,29.8570,-81.2650,2.8,1111122 
NDBC,ioos:station:NOAA.NDBC:SAUF1:1,2016-02-10T11:00:00Z,29.8570,-81.2650,2.3,1111122 
NDBC,ioos:station:NOAA.NDBC:SAUF1:1,2016-02-10T12:00:00Z,29.8570,-81.2650,2.3,1111122 
NDBC,ioos:station:NOAA.NDBC:SAUF1:1,2016-02-10T13:00:00Z,29.8570,-81.2650,4.7,1111122 
NDBC,ioos:station:NOAA.NDBC:SAUF1:1,2016-02-10T14:00:00Z,29.8570,-81.2650,6.5,1111122 
NDBC,ioos:station:NOAA.NDBC:SAUF1:1,2016-02-10T15:00:00Z,29.8570,-81.2650,7.1,1111122 
NDBC,ioos:station:NOAA.NDBC:SAUF1:1,2016-02-10T16:00:00Z,29.8570,-81.2650,8.2,1111122 
NDBC,ioos:station:NOAA.NDBC:SAUF1:1,2016-02-10T17:00:00Z,29.8570,-81.2650,8.9,1111122 
NDBC,ioos:station:NOAA.NDBC:SAUF1:1,2016-02-10T18:00:00Z,29.8570,-81.2650,10.2,1111122 
NDBC,ioos:station:NOAA.NDBC:SAUF1:1,2016-02-10T19:00:00Z,29.8570,-81.2650,10.7,1111122 
NDBC,ioos:station:NOAA.NDBC:SAUF1:1,2016-02-10T20:00:00Z,29.8570,-81.2650,11.6,1111122 
NDBC,ioos:station:NOAA.NDBC:SAUF1:1,2016-02-10T21:00:00Z,29.8570,-81.2650,11.1,1111122 
NDBC,ioos:station:NOAA.NDBC:SAUF1:1,2016-02-10T22:00:00Z,29.8570,-81.2650,11.5,1111122 
NDBC,ioos:station:NOAA.NDBC:SAUF1:1,2016-02-10T23:00:00Z,29.8570,-81.2650,10.1,1111122 
NDBC,ioos:station:NOAA.NDBC:SAUF1:1,2016-02-11T00:00:00Z,29.8570,-81.2650,8.4,1111122 
NDBC,ioos:station:NOAA.NDBC:SAUF1:1,2016-02-11T01:00:00Z,29.8570,-81.2650,7.9,1111122 
NDBC,ioos:station:NOAA.NDBC:SAUF1:1,2016-02-11T02:00:00Z,29.8570,-81.2650,6.8,1111122 
NDBC,ioos:station:NOAA.NDBC:SAUF1:1,2016-02-11T03:00:00Z,29.8570,-81.2650,5.7,1111122 
NDBC,ioos:station:NOAA.NDBC:SAUF1:1,2016-02-11T04:00:00Z,29.8570,-81.2650,4.7,1111122 
NDBC,ioos:station:NOAA.NDBC:SAUF1:1,2016-02-11T05:00:00Z,29.8570,-81.2650,4.1,1111122 
NDBC,ioos:station:NOAA.NDBC:SAUF1:1,2016-02-11T06:00:00Z,29.8570,-81.2650,3.6,1111122 
NDBC,ioos:station:NOAA.NDBC:SAUF1:1,2016-02-11T07:00:00Z,29.8570,-81.2650,3.0,1111122 
NDBC,ioos:station:NOAA.NDBC:SAUF1:1,2016-02-11T08:00:00Z,29.8570,-81.2650,2.9,1111122 
NDBC,ioos:station:NOAA.NDBC:SAUF1:1,2016-02-11T09:00:00Z,29.8570,-81.2650,2.0,1111122 
NDBC,ioos:station:NOAA.NDBC:SAUF1:1,2016-02-11T10:00:00Z,29.8570,-81.2650,3.3,1111122 
NDBC,ioos:station:NOAA.NDBC:SAUF1:1,2016-02-11T11:00:00Z,29.8570,-81.2650,3.4,1111122 
NDBC,ioos:station:NOAA.NDBC:SAUF1:1,2016-02-11T12:00:00Z,29.8570,-81.2650,2.9,1111122 
NDBC,ioos:station:NOAA.NDBC:SAUF1:1,2016-02-11T13:00:00Z,29.8570,-81.2650,4.9,1111122 
NDBC,ioos:station:NOAA.NDBC:SAUF1:1,2016-02-11T14:00:00Z,29.8570,-81.2650,7.2,1111122 
NDBC,ioos:station:NOAA.NDBC:SAUF1:1,2016-02-11T16:00:00Z,29.8570,-81.2650,11.2,1111122 
NDBC,ioos:station:NOAA.NDBC:SAUF1:1,2016-02-11T17:00:00Z,29.8570,-81.2650,11.4,1111122 
NDBC,ioos:station:NOAA.NDBC:SAUF1:1,2016-02-11T18:00:00Z,29.8570,-81.2650,12.1,1111122 
NDBC,ioos:station:NOAA.NDBC:SAUF1:1,2016-02-11T19:00:00Z,29.8570,-81.2650,12.3,1111122 
NDBC,ioos:station:NOAA.NDBC:SAUF1:1,2016-02-11T20:00:00Z,29.8570,-81.2650,13.0,1111122 
NDBC,ioos:station:NOAA.NDBC:SAUF1:1,2016-02-11T21:00:00Z,29.8570,-81.2650,13.4,1111122 
NDBC,ioos:station:NOAA.NDBC:SAUF1:1,2016-02-11T22:00:00Z,29.8570,-81.2650,13.6,1111122 
NDBC,ioos:station:NOAA.NDBC:SAUF1:1,2016-02-11T23:00:00Z,29.8570,-81.2650,13.7,1111122 
NDBC,ioos:station:NOAA.NDBC:SAUF1:1,2016-02-12T00:00:00Z,29.8570,-81.2650,13.9,1111122 
NDBC,ioos:station:NOAA.NDBC:SAUF1:1,2016-02-12T01:00:00Z,29.8570,-81.2650,12.2,1111122 
NDBC,ioos:station:NOAA.NDBC:SAUF1:1,2016-02-12T02:00:00Z,29.8570,-81.2650,12.2,1111122 
NDBC,ioos:station:NOAA.NDBC:SAUF1:1,2016-02-12T03:00:00Z,29.8570,-81.2650,12.2,1111122 
NDBC,ioos:station:NOAA.NDBC:SAUF1:1,2016-02-12T04:00:00Z,29.8570,-81.2650,12.2,1111122 
NDBC,ioos:station:NOAA.NDBC:SAUF1:1,2016-02-12T05:00:00Z,29.8570,-81.2650,12.3,1111122 
NDBC,ioos:station:NOAA.NDBC:SAUF1:1,2016-02-12T06:00:00Z,29.8570,-81.2650,12.1,1111122 
NDBC,ioos:station:NOAA.NDBC:SAUF1:1,2016-02-12T07:00:00Z,29.8570,-81.2650,11.6,1111122 
NDBC,ioos:station:NOAA.NDBC:SAUF1:1,2016-02-12T08:00:00Z,29.8570,-81.2650,10.8,1111122 
NDBC,ioos:station:NOAA.NDBC:SAUF1:1,2016-02-12T09:00:00Z,29.8570,-81.2650,10.4,1111122 
NDBC,ioos:station:NOAA.NDBC:SAUF1:1,2016-02-12T10:00:00Z,29.8570,-81.2650,10.0,1111122 
NDBC,ioos:station:NOAA.NDBC:SAUF1:1,2016-02-12T11:00:00Z,29.8570,-81.2650,9.8,1111122 
NDBC,ioos:station:NOAA.NDBC:SAUF1:1,2016-02-12T12:00:00Z,29.8570,-81.2650,9.9,1111122 
NDBC,ioos:station:NOAA.NDBC:SAUF1:1,2016-02-12T13:00:00Z,29.8570,-81.2650,10.9,1111122 
NDBC,ioos:station:NOAA.NDBC:SAUF1:1,2016-02-12T14:00:00Z,29.8570,-81.2650,14.5,1111122 
NDBC,ioos:station:NOAA.NDBC:SAUF1:1,2016-02-12T15:00:00Z,29.8570,-81.2650,17.9,1111122 
NDBC,ioos:station:NOAA.NDBC:SAUF1:1,2016-02-12T16:00:00Z,29.8570,-81.2650,19.3,1111122 
NDBC,ioos:station:NOAA.NDBC:SAUF1:1,2016-02-12T17:00:00Z,29.8570,-81.2650,20.6,1111122 
NDBC,ioos:station:NOAA.NDBC:SAUF1:1,2016-02-12T18:00:00Z,29.8570,-81.2650,21.8,1111122 
NDBC,ioos:station:NOAA.NDBC:SAUF1:1,2016-02-12T19:00:00Z,29.8570,-81.2650,22.5,1111122 
NDBC,ioos:station:NOAA.NDBC:SAUF1:1,2016-02-12T20:00:00Z,29.8570,-81.2650,23.0,1111122 
NDBC,ioos:station:NOAA.NDBC:SAUF1:1,2016-02-12T21:00:00Z,29.8570,-81.2650,22.9,1111122 
NDBC,ioos:station:NOAA.NDBC:SAUF1:1,2016-02-12T22:00:00Z,29.8570,-81.2650,22.2,1111122 
NDBC,ioos:station:NOAA.NDBC:SAUF1:1,2016-02-12T23:00:00Z,29.8570,-81.2650,20.8,1111122 
NDBC,ioos:station:NOAA.NDBC:SAUF1:1,2016-02-13T00:00:00Z,29.8570,-81.2650,19.3,1111122 
NDBC,ioos:station:NOAA.NDBC:SAUF1:1,2016-02-13T01:00:00Z,29.8570,-81.2650,17.9,1111122 
NDBC,ioos:station:NOAA.NDBC:SAUF1:1,2016-02-13T02:00:00Z,29.8570,-81.2650,17.3,1111122 
NDBC,ioos:station:NOAA.NDBC:SAUF1:1,2016-02-13T03:00:00Z,29.8570,-81.2650,16.6,1111122 
NDBC,ioos:station:NOAA.NDBC:SAUF1:1,2016-02-13T04:00:00Z,29.8570,-81.2650,16.1,1111122 
NDBC,ioos:station:NOAA.NDBC:SAUF1:1,2016-02-13T05:00:00Z,29.8570,-81.2650,16.2,1111122 
NDBC,ioos:station:NOAA.NDBC:SAUF1:1,2016-02-13T06:00:00Z,29.8570,-81.2650,15.8,1111122 